User: anonymous   Login
Location: Lucerne Valley
(34.4439°N, 116.9669°E)
Time: 17:18:19
(UTC-07:00)
Language:

Hubble Space Telescope - Orbit

View from above orbital plane
View from above orbital plane
View from above satellite
View from above satellite

Ground track
Ground track

The orbit data is extracted from the following two-line orbital elements,

1 20580U 90037B   17296.21747351  .00000787  00000-0  37500-4 0  9990
2 20580  28.4693 241.4553 0002951 110.1354  31.7272 15.08895601309642
Epoch (UTC): 23 October 2017 05:13:09
Eccentricity: 0.0002951
inclination: 28.4693°
perigee height: 537 km
apogee height: 541 km
right ascension of ascending node: 241.4553°
argument of perigee: 110.1354°
revolutions per day: 15.08895601
mean anomaly at epoch: 31.7272°
orbit number at epoch: 30964

The dashed part of the orbit path shows where the satellite is in the earth's shadow,  

DLR